Tracking 26935 objects as of 4-Feb-2023
HD Live streaming from Space Station
objects crossing your sky now

COSMOS 970 DEB

Track COSMOS 970 DEB now!
10-day predictions


NORAD ID: 13948
Int'l Code: 1977-121BD
Perigee: 913.5 km
Apogee: 1,020.3 km
Inclination: 65.8 °
Period: 104.3 minutes
Semi major axis: 7337 km
RCS: 0.0056 m2 (small)
Launch date: December 21, 1977
Source: Commonwealth of Independent States (former USSR) (CIS)
Launch site: TYURATAM MISSILE AND SPACE COMPLEX (TTMTR)

Note: This is SATELLITE DEBRIS
Your satellite tracking list
Your tracking list is empty




NASA's NSSDC Master Catalog

Two Line Element Set (TLE):
1 13948U 77121BD  23034.88121001  .00000846  00000-0  85794-3 0  9990
2 13948  65.7621 293.1213 0072810 236.5888 249.2751 13.81162116133268
Source of the keplerian elements: AFSPC